Location: Banios
(43.0451°N, 0.2335°E)
Time: 09:21:55
(UTC+00:00)

A-11 Canister half - Pass Details

Date: 13 May 2021
Orbit: 1527 x 1681 km, 47.3° (Epoch: 22 June)

Event Time Altitude Azimuth Distance (km) Brightness Sun altitude
Rises 17:26:17 0° 288° (WNW) 4,898 13.3 17.8°
Reaches altitude 10° 17:31:12 10° 269° (W) 3,926 13.3 16.9°
Maximum altitude 17:36:21 15° 237° (WSW) 3,513 11.8 16.0°
Drops below altitude 10° 17:41:32 10° 205° (SSW) 3,934 11.4 15.0°
Sets 17:46:32 0° 185° (S) 4,914 11.6 14.1°
